Location: Le Domaine
(47.0333°N, 76.5361°W)
Time: 20:40:11
(UTC-05:00)

S-56A Canister/Altair - Pass Details

Date: 27 November 2019
Orbit: 633 x 2499 km, 38.9° (Epoch: 10 December)

Event Time Altitude Azimuth Distance (km) Brightness Sun altitude
Rises 18:02:08 0° 270° (W) 5,448 13.4 -16.7°
Reaches altitude 10° 18:06:20 10° 265° (W) 4,163 12.5 -17.4°
Maximum altitude 18:15:59 44° 199° (SSW) 1,796 9.6 -19.0°
Enters shadow 18:21:47 14° 133° (SE) 2,614 9.9 -20.0°
Drops below altitude 10° 18:22:30 10° 130° (SE) 2,827 - -20.1°
Sets 18:24:51 0° 123° (ESE) 3,581 - -20.5°
